Location: Moscow
(38.8570°N, 84.2291°W)
Time: 20:31:28
(UTC+00:00)

NANOSAT C BR1 - Pass Details

Date: 16 March 2026
Orbit: 474 x 480 km, 98.1° (Epoch: 21 April)

Event Time Altitude Azimuth Distance (km) Brightness Sun altitude
Rises 00:13:55 0° 170° (S) 2,540 ? -6.6°
Reaches altitude 10° 00:15:58 10° 172° (S) 1,663 ? -7.0°
Maximum altitude 00:19:32 75° 257° (WSW) 507 ? -7.7°
Drops below altitude 10° 00:23:08 10° 344° (NNW) 1,672 ? -8.4°
Sets 00:25:12 0° 346° (NNW) 2,555 ? -8.8°
